Location: Palomar Mountain Lodge
(33.3110°N, 116.8495°W)
Time: 20:41:45
(UTC-08:00)

Cosmos 44 - Pass Details

Date: 19 May 2017
Orbit: 592 x 770 km, 65.1° (Epoch: 20 November)

Event Time Altitude Azimuth Distance (km) Brightness Sun altitude
Rises 20:19:16 0° 339° (NNW) 2,825 7.4 -7.4°
Reaches altitude 10° 20:21:36 10° 346° (NNW) 1,923 6.3 -7.9°
Maximum altitude 20:25:43 44° 59° (ENE) 827 3.5 -8.6°
Enters shadow 20:29:36 12° 130° (SE) 1,837 4.8 -9.3°
